• In Hungary
  • List of Countries
  • For 7 days
  • Water Temperature
  • Satellite Maps
  • Weather Map
  • News
  • Weather Widgets
  • user-avatar
    Login

    Hourly Weather San Gimignano

    Today, 19 October, Thursday

    Time Temperature Precipitation Wind Pressure Humidity
    00:00 +13°C° 0 mm 1 mps 743 mmHg 76%
    01:00 +13°C° 0 mm 1 mps 743 mmHg 77%
    02:00 +13°C° 0 mm 1 mps 743 mmHg 77%
    03:00 +13°C° 0 mm 1 mps 743 mmHg 77%
    04:00 +12°C° 0 mm 1 mps 743 mmHg 77%
    05:00 +12°C° 0 mm 1 mps 743 mmHg 76%
    06:00 +12°C° 0 mm 1 mps 743 mmHg 75%
    07:00 +12°C° 0 mm 2 mps 743 mmHg 69%
    08:00 +14°C° 0 mm 1 mps 743 mmHg 61%
    09:00 +18°C° 0 mm 1 mps 743 mmHg 53%
    10:00 +20°C° 0 mm 1 mps 744 mmHg 45%
    11:00 +22°C° 0 mm 1 mps 744 mmHg 41%
    12:00 +23°C° 0 mm 1 mps 743 mmHg 38%
    13:00 +24°C° 0 mm 1 mps 743 mmHg 34%
    14:00 +24°C° 0 mm 1 mps 743 mmHg 36%
    15:00 +24°C° 0 mm 1 mps 743 mmHg 38%
    16:00 +23°C° 0 mm 1 mps 742 mmHg 40%
    17:00 +21°C° 0 mm 1 mps 742 mmHg 47%
    18:00 +19°C° 0 mm 1 mps 742 mmHg 53%
    19:00 +15°C° 0 mm 1 mps 742 mmHg 60%
    20:00 +15°C° 0 mm 1 mps 742 mmHg 62%
    21:00 +15°C° 0 mm 1 mps 742 mmHg 65%
    22:00 +14°C° 0 mm 1 mps 743 mmHg 67%
    23:00 +14°C° 0 mm 1 mps 743 mmHg 66%

    Tomorrow, 20 October, Friday

    Time Temperature Precipitation Wind Pressure Humidity
    00:00 +14°C° 0 mm 1 mps 743 mmHg 66%
    01:00 +14°C° 0 mm 1 mps 743 mmHg 65%
    02:00 +13°C° 0 mm 1 mps 743 mmHg 64%
    03:00 +13°C° 0 mm 1 mps 743 mmHg 64%
    04:00 +13°C° 0 mm 1 mps 742 mmHg 63%
    05:00 +13°C° 0 mm 1 mps 743 mmHg 64%
    06:00 +13°C° 0 mm 1 mps 743 mmHg 64%
    07:00 +13°C° 0 mm 1 mps 743 mmHg 64%
    08:00 +15°C° 0 mm 1 mps 744 mmHg 58%
    09:00 +19°C° 0 mm 1 mps 744 mmHg 52%
    10:00 +21°C° 0 mm 1 mps 745 mmHg 45%
    11:00 +22°C° 0 mm 1 mps 745 mmHg 43%
    12:00 +23°C° 0 mm 1 mps 745 mmHg 41%
    13:00 +24°C° 0 mm 1 mps 745 mmHg 39%
    14:00 +24°C° 0 mm 1 mps 744 mmHg 41%
    15:00 +24°C° 0 mm 1 mps 744 mmHg 43%
    16:00 +23°C° 0 mm 1 mps 744 mmHg 45%
    17:00 +21°C° 0 mm 1 mps 744 mmHg 52%
    18:00 +19°C° 0 mm 1 mps 744 mmHg 59%
    19:00 +16°C° 0 mm 1 mps 744 mmHg 67%
    20:00 +15°C° 0 mm 1 mps 745 mmHg 68%
    21:00 +15°C° 0 mm 1 mps 745 mmHg 70%
    22:00 +15°C° 0 mm 1 mps 745 mmHg 71%
    23:00 +14°C° 0 mm 1 mps 745 mmHg 71%

    Day after tomorrow, 21 October, Saturday

    Time Temperature Precipitation Wind Pressure Humidity
    00:00 +14°C° 0 mm 1 mps 745 mmHg 72%
    01:00 +14°C° 0 mm 1 mps 745 mmHg 72%
    02:00 +14°C° 0 mm 1 mps 745 mmHg 72%
    03:00 +14°C° 0 mm 1 mps 745 mmHg 73%
    04:00 +14°C° 0 mm 1 mps 745 mmHg 73%
    05:00 +14°C° 0 mm 1 mps 745 mmHg 73%
    06:00 +14°C° 0 mm 1 mps 745 mmHg 73%
    07:00 +14°C° 0 mm 1 mps 745 mmHg 73%
    08:00 +16°C° 0 mm 1 mps 745 mmHg 70%
    09:00 +19°C° 0 mm 1 mps 746 mmHg 68%
    10:00 +21°C° 0 mm 1 mps 746 mmHg 65%
    11:00 +21°C° 0 mm 2 mps 746 mmHg 63%
    12:00 +23°C° 0 mm 2 mps 746 mmHg 61%
    13:00 +24°C° 0 mm 3 mps 745 mmHg 59%
    14:00 +22°C° 0 mm 3 mps 745 mmHg 61%
    15:00 +22°C° 0 mm 3 mps 745 mmHg 63%
    16:00 +21°C° 0 mm 3 mps 744 mmHg 65%
    17:00 +20°C° 0 mm 2 mps 744 mmHg 73%
    18:00 +18°C° 0 mm 2 mps 744 mmHg 82%
    19:00 +16°C° 0 mm 1 mps 744 mmHg 90%
    20:00 +16°C° 0 mm 1 mps 744 mmHg 91%
    21:00 +16°C° 0 mm 1 mps 744 mmHg 92%
    22:00 +16°C° 0 mm 1 mps 744 mmHg 93%
    23:00 +16°C° 0 mm 1 mps 744 mmHg 93%

    22 October, Sunday

    Time Temperature Precipitation Wind Pressure Humidity
    00:00 +16°C° 0 mm 1 mps 744 mmHg 93%
    01:00 +16°C° 0 mm 1 mps 744 mmHg 93%
    02:00 +16°C° 0 mm 1 mps 743 mmHg 93%
    03:00 +15°C° 0 mm 1 mps 743 mmHg 93%
    04:00 +15°C° 0 mm 2 mps 743 mmHg 93%
    05:00 +15°C° 0.1 mm 2 mps 742 mmHg 93%
    06:00 +15°C° 0.1 mm 2 mps 742 mmHg 93%
    07:00 +15°C° 0.1 mm 2 mps 742 mmHg 93%
    08:00 +16°C° 0.2 mm 2 mps 741 mmHg 88%
    09:00 +18°C° 0.2 mm 2 mps 741 mmHg 83%
    10:00 +19°C° 0.2 mm 2 mps 741 mmHg 78%
    11:00 +20°C° 0.2 mm 3 mps 741 mmHg 71%
    12:00 +21°C° 0.2 mm 4 mps 740 mmHg 65%
    13:00 +21°C° 0.2 mm 5 mps 739 mmHg 58%
    14:00 +21°C° 0.1 mm 6 mps 739 mmHg 55%
    15:00 +20°C° 0.1 mm 7 mps 738 mmHg 52%
    16:00 +18°C° 0.1 mm 7 mps 737 mmHg 49%
    17:00 +17°C° 0 mm 7 mps 737 mmHg 51%
    18:00 +16°C° 0 mm 6 mps 737 mmHg 53%
    19:00 +15°C° 0 mm 6 mps 737 mmHg 55%
    20:00 +14°C° 0.3 mm 5 mps 737 mmHg 61%
    21:00 +14°C° 0.3 mm 4 mps 737 mmHg 67%
    22:00 +13°C° 0.3 mm 3 mps 737 mmHg 74%
    23:00 +13°C° 0.2 mm 3 mps 737 mmHg 77%

    23 October, Monday

    Time Temperature Precipitation Wind Pressure Humidity
    00:00 +12°C° 0.2 mm 3 mps 737 mmHg 79%
    01:00 +12°C° 0.2 mm 3 mps 737 mmHg 82%
    02:00 +11°C° 0 mm 3 mps 738 mmHg 81%
    03:00 +11°C° 0 mm 3 mps 738 mmHg 80%
    04:00 +11°C° 0 mm 3 mps 738 mmHg 79%
    05:00 +11°C° 0.1 mm 3 mps 739 mmHg 77%
    06:00 +11°C° 0.1 mm 3 mps 739 mmHg 76%
    07:00 +11°C° 0.1 mm 3 mps 740 mmHg 75%
    08:00 +12°C° 0 mm 4 mps 741 mmHg 68%
    09:00 +14°C° 0 mm 4 mps 741 mmHg 62%
    10:00 +15°C° 0 mm 4 mps 742 mmHg 56%
    11:00 +17°C° 0 mm 4 mps 742 mmHg 50%
    12:00 +18°C° 0 mm 4 mps 742 mmHg 43%
    13:00 +19°C° 0 mm 4 mps 742 mmHg 37%
    14:00 +19°C° 0 mm 3 mps 742 mmHg 37%
    15:00 +19°C° 0 mm 3 mps 742 mmHg 38%
    16:00 +18°C° 0 mm 3 mps 742 mmHg 38%
    17:00 +16°C° 0 mm 2 mps 743 mmHg 43%
    18:00 +14°C° 0 mm 2 mps 743 mmHg 48%
    19:00 +12°C° 0 mm 2 mps 744 mmHg 52%
    20:00 +12°C° 0 mm 2 mps 744 mmHg 52%
    21:00 +12°C° 0 mm 1 mps 744 mmHg 51%
    22:00 +11°C° 0 mm 1 mps 744 mmHg 50%
    23:00 +11°C° 0 mm 1 mps 745 mmHg 49%

    24 October, Tuesday

    Time Temperature Precipitation Wind Pressure Humidity
    00:00 +11°C° 0 mm 1 mps 745 mmHg 48%
    01:00 +11°C° 0 mm 1 mps 745 mmHg 46%
    02:00 +10°C° 0 mm 1 mps 745 mmHg 47%
    03:00 +10°C° 0 mm 1 mps 745 mmHg 47%
    04:00 +9°C° 0 mm 2 mps 745 mmHg 47%
    05:00 +9°C° 0 mm 2 mps 746 mmHg 47%
    06:00 +9°C° 0 mm 2 mps 746 mmHg 48%
    07:00 +9°C° 0 mm 2 mps 746 mmHg 49%
    08:00 +12°C° 0 mm 2 mps 746 mmHg 45%
    09:00 +15°C° 0 mm 2 mps 747 mmHg 40%
    10:00 +17°C° 0 mm 2 mps 747 mmHg 36%
    11:00 +18°C° 0 mm 2 mps 747 mmHg 34%
    12:00 +19°C° 0 mm 2 mps 747 mmHg 32%
    13:00 +20°C° 0 mm 2 mps 746 mmHg 30%
    14:00 +20°C° 0 mm 2 mps 746 mmHg 32%
    15:00 +19°C° 0 mm 2 mps 746 mmHg 35%
    16:00 +19°C° 0 mm 2 mps 746 mmHg 38%
    17:00 +17°C° 0 mm 2 mps 746 mmHg 43%
    18:00 +15°C° 0 mm 2 mps 747 mmHg 48%
    19:00 +13°C° 0 mm 2 mps 747 mmHg 53%
    20:00 +13°C° 0 mm 2 mps 747 mmHg 56%
    21:00 +11°C° 0 mm 3 mps 747 mmHg 58%
    22:00 +11°C° 0 mm 3 mps 748 mmHg 61%
    23:00 +11°C° 0 mm 3 mps 748 mmHg 63%
    Show more